When you browse on this site, cookies collect data to enhance your experience and personalize the content and advertising you see.
Visit our Privacy Policy to learn more. By continuing to use the site, you agree to this use of cookies and data.
  • In Deutschland
  • Länderverzeichnis
  • Für 7 Tage
  • Wassertemperatur
  • Wetterkarte
  • Widgets
  • user-avatar
    Anmelden

    Stündliche Wetter Sankt Pölten

    Heute, 22 August, Donnerstag

    Zeit Temperatur Niederschläge Wind Luftdruck Luftfeuchtigkeit
    00:00 +15°C° 0 mm 1 m/S 743 mmHg 92%
    01:00 +15°C° 0 mm 1 m/S 743 mmHg 93%
    02:00 +15°C° 0.1 mm 1 m/S 743 mmHg 93%
    03:00 +15°C° 0.1 mm 1 m/S 742 mmHg 94%
    04:00 +15°C° 0.1 mm 1 m/S 742 mmHg 94%
    05:00 +15°C° 0.2 mm 1 m/S 742 mmHg 93%
    06:00 +16°C° 0.2 mm 1 m/S 742 mmHg 92%
    07:00 +16°C° 0.2 mm 2 m/S 742 mmHg 91%
    08:00 +18°C° 0 mm 1 m/S 742 mmHg 86%
    09:00 +19°C° 0 mm 1 m/S 742 mmHg 81%
    10:00 +21°C° 0 mm 1 m/S 742 mmHg 76%
    11:00 +21°C° 0 mm 2 m/S 742 mmHg 70%
    12:00 +23°C° 0 mm 2 m/S 742 mmHg 64%
    13:00 +25°C° 0 mm 2 m/S 742 mmHg 58%
    14:00 +25°C° 0.1 mm 2 m/S 742 mmHg 60%
    15:00 +24°C° 0.1 mm 2 m/S 741 mmHg 62%
    16:00 +24°C° 0.1 mm 3 m/S 741 mmHg 63%
    17:00 +23°C° 0.3 mm 2 m/S 741 mmHg 71%
    18:00 +21°C° 0.3 mm 1 m/S 741 mmHg 79%
    19:00 +20°C° 0.3 mm 1 m/S 741 mmHg 86%
    20:00 +19°C° 0.1 mm 1 m/S 741 mmHg 88%
    21:00 +19°C° 0.1 mm 1 m/S 742 mmHg 89%
    22:00 +18°C° 0.1 mm 1 m/S 742 mmHg 91%
    23:00 +18°C° 0 mm 1 m/S 742 mmHg 92%

    Morgen, 23 August, Freitag

    Zeit Temperatur Niederschläge Wind Luftdruck Luftfeuchtigkeit
    00:00 +18°C° 0 mm 1 m/S 742 mmHg 92%
    01:00 +15°C° 0 mm 0 m/S 742 mmHg 93%
    02:00 +15°C° 0 mm 0 m/S 742 mmHg 93%
    03:00 +15°C° 0 mm 0 m/S 742 mmHg 94%
    04:00 +14°C° 0 mm 0 m/S 741 mmHg 95%
    05:00 +15°C° 0 mm 0 m/S 741 mmHg 92%
    06:00 +16°C° 0 mm 0 m/S 742 mmHg 90%
    07:00 +17°C° 0 mm 0 m/S 742 mmHg 88%
    08:00 +21°C° 0 mm 1 m/S 742 mmHg 81%
    09:00 +23°C° 0 mm 1 m/S 742 mmHg 74%
    10:00 +25°C° 0 mm 2 m/S 742 mmHg 67%
    11:00 +26°C° 0 mm 2 m/S 742 mmHg 65%
    12:00 +27°C° 0 mm 2 m/S 741 mmHg 63%
    13:00 +27°C° 0 mm 3 m/S 741 mmHg 61%
    14:00 +28°C° 0 mm 3 m/S 741 mmHg 61%
    15:00 +28°C° 0 mm 3 m/S 740 mmHg 62%
    16:00 +28°C° 0 mm 3 m/S 740 mmHg 62%
    17:00 +26°C° 0.3 mm 2 m/S 740 mmHg 70%
    18:00 +24°C° 0.3 mm 2 m/S 740 mmHg 78%
    19:00 +22°C° 0.3 mm 1 m/S 740 mmHg 86%
    20:00 +22°C° 0.5 mm 1 m/S 740 mmHg 88%
    21:00 +21°C° 0.5 mm 1 m/S 740 mmHg 89%
    22:00 +21°C° 0.5 mm 1 m/S 740 mmHg 91%
    23:00 +21°C° 0 mm 1 m/S 740 mmHg 92%

    übermorgen, 24 August, Samstag

    Zeit Temperatur Niederschläge Wind Luftdruck Luftfeuchtigkeit
    00:00 +20°C° 0 mm 1 m/S 739 mmHg 93%
    01:00 +20°C° 0 mm 1 m/S 739 mmHg 94%
    02:00 +20°C° 0 mm 1 m/S 739 mmHg 94%
    03:00 +20°C° 0 mm 1 m/S 739 mmHg 94%
    04:00 +19°C° 0 mm 1 m/S 739 mmHg 95%
    05:00 +20°C° 0 mm 1 m/S 739 mmHg 93%
    06:00 +21°C° 0 mm 1 m/S 739 mmHg 92%
    07:00 +22°C° 0 mm 1 m/S 739 mmHg 90%
    08:00 +24°C° 0 mm 1 m/S 739 mmHg 82%
    09:00 +25°C° 0 mm 1 m/S 739 mmHg 74%
    10:00 +27°C° 0 mm 1 m/S 739 mmHg 66%
    11:00 +29°C° 0 mm 2 m/S 739 mmHg 60%
    12:00 +30°C° 0 mm 2 m/S 739 mmHg 55%
    13:00 +32°C° 0 mm 2 m/S 739 mmHg 49%
    14:00 +31°C° 0.2 mm 2 m/S 738 mmHg 50%
    15:00 +31°C° 0.2 mm 3 m/S 738 mmHg 51%
    16:00 +31°C° 0.2 mm 3 m/S 738 mmHg 52%
    17:00 +29°C° 0 mm 2 m/S 737 mmHg 58%
    18:00 +26°C° 0 mm 2 m/S 737 mmHg 65%
    19:00 +24°C° 0 mm 2 m/S 737 mmHg 72%
    20:00 +24°C° 0 mm 1 m/S 737 mmHg 74%
    21:00 +23°C° 0 mm 1 m/S 738 mmHg 76%
    22:00 +22°C° 0 mm 1 m/S 738 mmHg 78%
    23:00 +22°C° 0 mm 1 m/S 737 mmHg 78%

    25 August, Sonntag

    Zeit Temperatur Niederschläge Wind Luftdruck Luftfeuchtigkeit
    00:00 +21°C° 0 mm 1 m/S 737 mmHg 79%
    01:00 +21°C° 0 mm 1 m/S 737 mmHg 79%
    02:00 +21°C° 0 mm 1 m/S 737 mmHg 80%
    03:00 +20°C° 0 mm 1 m/S 737 mmHg 81%
    04:00 +20°C° 0 mm 1 m/S 737 mmHg 83%
    05:00 +21°C° 0 mm 1 m/S 737 mmHg 80%
    06:00 +20°C° 0 mm 0 m/S 737 mmHg 78%
    07:00 +21°C° 0 mm 0 m/S 737 mmHg 76%
    08:00 +23°C° 0 mm 0 m/S 738 mmHg 69%
    09:00 +27°C° 0 mm 1 m/S 738 mmHg 62%
    10:00 +29°C° 0 mm 1 m/S 738 mmHg 54%
    11:00 +30°C° 0.1 mm 1 m/S 738 mmHg 51%
    12:00 +31°C° 0.1 mm 1 m/S 738 mmHg 48%
    13:00 +32°C° 0.1 mm 1 m/S 737 mmHg 45%
    14:00 +32°C° 0 mm 2 m/S 737 mmHg 45%
    15:00 +32°C° 0 mm 2 m/S 737 mmHg 44%
    16:00 +32°C° 0 mm 2 m/S 737 mmHg 44%
    17:00 +29°C° 0.1 mm 2 m/S 737 mmHg 52%
    18:00 +27°C° 0.1 mm 1 m/S 737 mmHg 60%
    19:00 +25°C° 0.1 mm 1 m/S 736 mmHg 68%
    20:00 +24°C° 0.1 mm 1 m/S 737 mmHg 71%
    21:00 +23°C° 0.1 mm 1 m/S 737 mmHg 74%
    22:00 +22°C° 0.1 mm 1 m/S 738 mmHg 77%
    23:00 +22°C° 0 mm 1 m/S 738 mmHg 78%

    26 August, Montag

    Zeit Temperatur Niederschläge Wind Luftdruck Luftfeuchtigkeit
    00:00 +22°C° 0 mm 1 m/S 738 mmHg 79%
    01:00 +21°C° 0 mm 1 m/S 738 mmHg 80%
    02:00 +21°C° 0 mm 1 m/S 737 mmHg 82%
    03:00 +20°C° 0 mm 1 m/S 737 mmHg 83%
    04:00 +20°C° 0 mm 1 m/S 737 mmHg 85%
    05:00 +21°C° 0 mm 1 m/S 738 mmHg 84%
    06:00 +22°C° 0 mm 1 m/S 738 mmHg 82%
    07:00 +23°C° 0 mm 1 m/S 738 mmHg 80%
    08:00 +25°C° 0.1 mm 1 m/S 738 mmHg 74%
    09:00 +27°C° 0.1 mm 1 m/S 739 mmHg 68%
    10:00 +28°C° 0.1 mm 1 m/S 739 mmHg 62%
    11:00 +29°C° 0.5 mm 1 m/S 739 mmHg 59%
    12:00 +30°C° 0.5 mm 1 m/S 739 mmHg 56%
    13:00 +31°C° 0.5 mm 1 m/S 739 mmHg 53%
    14:00 +31°C° 0.3 mm 1 m/S 739 mmHg 53%
    15:00 +31°C° 0.3 mm 1 m/S 738 mmHg 53%
    16:00 +31°C° 0.3 mm 1 m/S 738 mmHg 52%
    17:00 +29°C° 0.2 mm 1 m/S 738 mmHg 61%
    18:00 +27°C° 0.2 mm 1 m/S 738 mmHg 69%
    19:00 +24°C° 0.2 mm 1 m/S 738 mmHg 77%
    20:00 +24°C° 0.4 mm 1 m/S 739 mmHg 79%
    21:00 +23°C° 0.4 mm 1 m/S 739 mmHg 82%
    22:00 +22°C° 0.4 mm 1 m/S 739 mmHg 85%
    23:00 +22°C° 0.2 mm 1 m/S 739 mmHg 86%

    27 August, Dienstag

    Zeit Temperatur Niederschläge Wind Luftdruck Luftfeuchtigkeit
    00:00 +21°C° 0.2 mm 1 m/S 739 mmHg 87%
    01:00 +21°C° 0.2 mm 1 m/S 739 mmHg 87%
    02:00 +21°C° 0 mm 1 m/S 739 mmHg 88%
    03:00 +20°C° 0 mm 1 m/S 739 mmHg 89%
    04:00 +20°C° 0 mm 1 m/S 739 mmHg 89%
    05:00 +21°C° 0 mm 1 m/S 739 mmHg 87%
    06:00 +22°C° 0 mm 1 m/S 739 mmHg 85%
    07:00 +21°C° 0 mm 0 m/S 739 mmHg 83%
    08:00 +25°C° 0 mm 1 m/S 740 mmHg 75%
    09:00 +27°C° 0 mm 1 m/S 740 mmHg 67%
    10:00 +30°C° 0 mm 1 m/S 740 mmHg 58%
    11:00 +31°C° 0.1 mm 1 m/S 740 mmHg 54%
    12:00 +31°C° 0.1 mm 2 m/S 739 mmHg 50%
    13:00 +33°C° 0.1 mm 3 m/S 739 mmHg 46%
    14:00 +33°C° 0 mm 3 m/S 739 mmHg 45%
    15:00 +33°C° 0 mm 3 m/S 738 mmHg 45%
    16:00 +33°C° 0 mm 3 m/S 738 mmHg 45%
    17:00 +30°C° 0.1 mm 2 m/S 738 mmHg 53%
    18:00 +28°C° 0.1 mm 2 m/S 737 mmHg 60%
    19:00 +25°C° 0.1 mm 1 m/S 737 mmHg 68%
    20:00 +25°C° 0 mm 1 m/S 737 mmHg 70%
    21:00 +24°C° 0 mm 1 m/S 738 mmHg 71%
    22:00 +23°C° 0 mm 1 m/S 738 mmHg 73%
    23:00 +23°C° 0 mm 1 m/S 738 mmHg 74%
    Mehr zeigen